Dati Storici

Data ora Umidita' aria (%) Temperatura aria (°C) Rad globale (W/m²) Gonioanemometro (°) Tacoanemometro (m/s) Pioggia (mm)
10-06-2020 08:10 94.3 % 16.741 -71.91 -0 0 0
10-06-2020 08:00 95.3 % 16.493 -62.275 0.767 0 0
10-06-2020 07:50 95.4 % 16.701 -61.97 0.002 0 0
10-06-2020 07:40 94.4 % 16.649 -79.925 0.008 0 0
10-06-2020 07:30 94.5 % 16.741 -64.889 -0 0 0
10-06-2020 07:20 95.5 % 16.59 -61.233 0.005 0 0
10-06-2020 07:10 97.4 % 16.732 -51.014 0.001 0 0
10-06-2020 07:00 97.7 % 16.305 -77.553 0.005 0 0
10-06-2020 06:50 97.7 % 16.157 -46.782 0.003 0 0
10-06-2020 06:40 97.7 % 15.952 -59.404 0.006 0 0
10-06-2020 06:30 97.7 % 15.907 -46.508 0.932 0 0
10-06-2020 06:20 97.7 % 15.947 -60.531 0.005 0 0
10-06-2020 06:10 97.7 % 15.964 -64.884 0.005 0 0
10-06-2020 06:00 97.7 % 15.812 -75.803 0.005 0 0
10-06-2020 05:50 97.7 % 15.732 -64.243 0.076 0 0
10-06-2020 05:40 97.7 % 15.534 -48.78 0.003 0 0
10-06-2020 05:30 97.7 % 15.366 -55.099 0.004 0 0
10-06-2020 05:20 97.8 % 15.1 -59.975 1.229 0 0
10-06-2020 05:10 97.8 % 15.004 -53.981 0.473 0 0
10-06-2020 05:00 97.8 % 15.032 -60.894 1.527 0 0

I dati sono presentati in modo automatico a scopo informativo. In seguito a verifica i dati possono subire modifiche o essere invalidati e non riportati negli archivi definitivi.